Location: Newark
(47.3150°N, 5.1150°E)
Time: 05:28:03
(UTC+00:00)

O/OREOS (USA 219) - Pass Details

Date: 15 December 2019
Orbit: 621 x 646 km, 72.0° (Epoch: 22 May)

Event Time Altitude Azimuth Distance (km) Brightness Sun altitude
Exits shadow 04:13:06 11° 20° (NNE) 1,962 ? -30.4°
Maximum altitude 04:14:48 13° 43° (NE) 1,831 ? -30.1°
Drops below altitude 10° 04:17:02 10° 72° (ENE) 2,040 ? -29.8°
Sets 04:20:28 0° 99° (E) 2,939 ? -29.2°
